Year,Month,Day,Hour,Minute,Value (Times are PST for windspeed in km/hr)
2010,06,02,00,00,12.20
2010,06,02,00,01,18.00
2010,06,02,00,02,14.50
2010,06,02,00,03,18.90
2010,06,02,00,04,10.30
2010,06,02,00,05,13.70
2010,06,02,00,06,16.00
2010,06,02,00,07,15.10
2010,06,02,00,08,11.90
2010,06,02,00,09,13.40
2010,06,02,00,10,22.70
2010,06,02,00,11,14.70
2010,06,02,00,12,16.00
2010,06,02,00,13,20.60
2010,06,02,00,14,16.00
2010,06,02,00,15,17.00
2010,06,02,00,16,14.30
2010,06,02,00,17,21.20
2010,06,02,00,18,15.50
2010,06,02,00,19,19.20
2010,06,02,00,20,17.90
2010,06,02,00,21,18.10
2010,06,02,00,22,17.30
2010,06,02,00,23,14.30
2010,06,02,00,24,15.50
2010,06,02,00,25,15.70
2010,06,02,00,26,16.40
2010,06,02,00,27,18.50
2010,06,02,00,28,15.80
2010,06,02,00,29,19.50
2010,06,02,00,30,17.20
2010,06,02,00,31,15.80
2010,06,02,00,32,14.60
2010,06,02,00,33,15.00
2010,06,02,00,34,10.80
2010,06,02,00,35,14.30
2010,06,02,00,36,14.70
2010,06,02,00,37,14.10
2010,06,02,00,38,15.20
2010,06,02,00,39,11.60
2010,06,02,00,40,14.20
2010,06,02,00,41,12.80
2010,06,02,00,42,8.20
2010,06,02,00,43,13.00
2010,06,02,00,44,11.20
2010,06,02,00,45,11.30
2010,06,02,00,46,12.20
2010,06,02,00,47,17.60
2010,06,02,00,48,12.50
2010,06,02,00,49,11.20
2010,06,02,00,50,10.20
2010,06,02,00,51,15.40
2010,06,02,00,52,11.60
2010,06,02,00,53,14.30
2010,06,02,00,54,19.80
2010,06,02,00,55,11.50
2010,06,02,00,56,14.90
2010,06,02,00,57,17.50
2010,06,02,00,58,10.30
2010,06,02,00,59,10.00
2010,06,02,01,00,16.80
2010,06,02,01,01,20.90
2010,06,02,01,02,12.60
2010,06,02,01,03,14.60
2010,06,02,01,04,15.80
2010,06,02,01,05,12.60
2010,06,02,01,06,20.50
2010,06,02,01,07,16.30
2010,06,02,01,08,21.40
2010,06,02,01,09,14.60
2010,06,02,01,10,17.10
2010,06,02,01,11,8.30
2010,06,02,01,12,17.00
2010,06,02,01,13,15.50
2010,06,02,01,14,14.70
2010,06,02,01,15,12.50
2010,06,02,01,16,7.70
2010,06,02,01,17,14.30
2010,06,02,01,18,10.60
2010,06,02,01,19,11.80
2010,06,02,01,20,20.00
2010,06,02,01,21,9.90
2010,06,02,01,22,10.80
2010,06,02,01,23,12.40
2010,06,02,01,24,6.60
2010,06,02,01,25,14.50
2010,06,02,01,26,18.50
2010,06,02,01,27,14.10
2010,06,02,01,28,19.20
2010,06,02,01,29,7.50
2010,06,02,01,30,8.30
2010,06,02,01,31,6.60
2010,06,02,01,32,13.60
2010,06,02,01,33,15.60
2010,06,02,01,34,16.60
2010,06,02,01,35,11.20
2010,06,02,01,36,11.70
2010,06,02,01,37,14.30
2010,06,02,01,38,10.70
2010,06,02,01,39,7.70
2010,06,02,01,40,7.70
2010,06,02,01,41,8.00
2010,06,02,01,42,8.50
2010,06,02,01,43,8.10
2010,06,02,01,44,14.10
2010,06,02,01,45,15.00
2010,06,02,01,46,18.90
2010,06,02,01,47,11.60
2010,06,02,01,48,10.80
2010,06,02,01,49,8.00
2010,06,02,01,50,11.40
2010,06,02,01,51,13.80
2010,06,02,01,52,10.20
2010,06,02,01,53,10.10
2010,06,02,01,54,12.60
2010,06,02,01,55,14.10
2010,06,02,01,56,11.40
2010,06,02,01,57,14.10
2010,06,02,01,58,13.00
2010,06,02,01,59,12.40
2010,06,02,02,00,12.30
2010,06,02,02,01,15.80
2010,06,02,02,02,15.20
2010,06,02,02,03,13.90
2010,06,02,02,04,10.30
2010,06,02,02,05,15.00
2010,06,02,02,06,12.60
2010,06,02,02,07,15.60
2010,06,02,02,08,13.40
2010,06,02,02,09,12.20
2010,06,02,02,10,12.60
2010,06,02,02,11,16.00
2010,06,02,02,12,17.50
2010,06,02,02,13,15.80
2010,06,02,02,14,16.30
2010,06,02,02,15,10.70
2010,06,02,02,16,13.50
2010,06,02,02,17,14.60
2010,06,02,02,18,12.20
2010,06,02,02,19,17.50
2010,06,02,02,20,13.80
2010,06,02,02,21,14.60
2010,06,02,02,22,15.20
2010,06,02,02,23,16.90
2010,06,02,02,24,13.10
2010,06,02,02,25,9.60
2010,06,02,02,26,10.00
2010,06,02,02,27,15.20
2010,06,02,02,28,18.60
2010,06,02,02,29,14.10
2010,06,02,02,30,11.70
2010,06,02,02,31,11.30
2010,06,02,02,32,15.00
2010,06,02,02,33,13.90
2010,06,02,02,34,16.50
2010,06,02,02,35,12.60
2010,06,02,02,36,19.30
2010,06,02,02,37,14.70
2010,06,02,02,38,12.40
2010,06,02,02,39,14.60
2010,06,02,02,40,18.00
2010,06,02,02,41,16.30
2010,06,02,02,42,18.60
2010,06,02,02,43,18.40
2010,06,02,02,44,17.50
2010,06,02,02,45,13.40
2010,06,02,02,46,16.80
2010,06,02,02,47,14.30
2010,06,02,02,48,15.20
2010,06,02,02,49,19.10
2010,06,02,02,50,14.70
2010,06,02,02,51,12.00
2010,06,02,02,52,12.30
2010,06,02,02,53,9.40
2010,06,02,02,54,13.10
2010,06,02,02,55,14.60
2010,06,02,02,56,17.20
2010,06,02,02,57,16.30
2010,06,02,02,58,15.40
2010,06,02,02,59,9.00
2010,06,02,03,00,9.30
2010,06,02,03,01,9.70
2010,06,02,03,02,9.50
2010,06,02,03,03,8.60
2010,06,02,03,04,7.20
2010,06,02,03,05,9.30
2010,06,02,03,06,8.90
2010,06,02,03,07,8.90
2010,06,02,03,08,10.80
2010,06,02,03,09,7.80
2010,06,02,03,10,10.80
2010,06,02,03,11,8.20
2010,06,02,03,12,6.40
2010,06,02,03,13,8.60
2010,06,02,03,14,8.80
2010,06,02,03,15,8.30
2010,06,02,03,16,6.90
2010,06,02,03,17,4.70
2010,06,02,03,18,3.00
2010,06,02,03,19,5.60
2010,06,02,03,20,10.20
2010,06,02,03,21,4.70
2010,06,02,03,22,9.20
2010,06,02,03,23,5.00
2010,06,02,03,24,8.10
2010,06,02,03,25,3.50
2010,06,02,03,26,4.40
2010,06,02,03,27,5.30
2010,06,02,03,28,7.90
2010,06,02,03,29,8.00
2010,06,02,03,30,8.50
2010,06,02,03,31,4.30
2010,06,02,03,32,6.90
2010,06,02,03,33,8.10
2010,06,02,03,34,9.70
2010,06,02,03,35,8.00
2010,06,02,03,36,11.10
2010,06,02,03,37,10.00
2010,06,02,03,38,9.50
2010,06,02,03,39,9.60
2010,06,02,03,40,9.70
2010,06,02,03,41,9.60
2010,06,02,03,42,13.80
2010,06,02,03,43,10.00
2010,06,02,03,44,12.70
2010,06,02,03,45,8.40
2010,06,02,03,46,10.00
2010,06,02,03,47,10.20
2010,06,02,03,48,10.00
2010,06,02,03,49,11.10
2010,06,02,03,50,11.80
2010,06,02,03,51,14.90
2010,06,02,03,52,11.90
2010,06,02,03,53,8.90
2010,06,02,03,54,11.70
2010,06,02,03,55,15.80
2010,06,02,03,56,12.80
2010,06,02,03,57,14.10
2010,06,02,03,58,14.30
2010,06,02,03,59,14.20
2010,06,02,04,00,12.40
2010,06,02,04,01,15.90
2010,06,02,04,02,15.30
2010,06,02,04,03,15.80
2010,06,02,04,04,15.10
2010,06,02,04,05,19.30
2010,06,02,04,06,17.10
2010,06,02,04,07,12.70
2010,06,02,04,08,14.40
2010,06,02,04,09,15.00
2010,06,02,04,10,12.00
2010,06,02,04,11,11.70
2010,06,02,04,12,12.60
2010,06,02,04,13,16.10
2010,06,02,04,14,11.30
2010,06,02,04,15,10.00
2010,06,02,04,16,16.40
2010,06,02,04,17,9.70
2010,06,02,04,18,12.40
2010,06,02,04,19,9.50
2010,06,02,04,20,11.00
2010,06,02,04,21,16.30
2010,06,02,04,22,12.00
2010,06,02,04,23,10.90
2010,06,02,04,24,8.80
2010,06,02,04,25,12.10
2010,06,02,04,26,10.00
2010,06,02,04,27,10.00
2010,06,02,04,28,8.00
2010,06,02,04,29,12.80
2010,06,02,04,30,8.80
2010,06,02,04,31,10.50
2010,06,02,04,32,7.20
2010,06,02,04,33,5.70
2010,06,02,04,34,7.10
2010,06,02,04,35,6.50
2010,06,02,04,36,7.60
2010,06,02,04,37,9.20
2010,06,02,04,38,6.40
2010,06,02,04,39,7.50
2010,06,02,04,40,11.60
2010,06,02,04,41,7.80
2010,06,02,04,42,8.80
2010,06,02,04,43,8.30
2010,06,02,04,44,8.30
2010,06,02,04,45,13.00
2010,06,02,04,46,10.40
2010,06,02,04,47,8.70
2010,06,02,04,48,13.40
2010,06,02,04,49,14.70
2010,06,02,04,50,14.50
2010,06,02,04,51,14.50
2010,06,02,04,52,13.80
2010,06,02,04,53,12.80
2010,06,02,04,54,17.90
2010,06,02,04,55,9.20
2010,06,02,04,56,9.90
2010,06,02,04,57,9.80
2010,06,02,04,58,8.40
2010,06,02,04,59,11.10
2010,06,02,05,00,7.60
2010,06,02,05,01,12.50
2010,06,02,05,02,16.30
2010,06,02,05,03,14.20
2010,06,02,05,04,11.10
2010,06,02,05,05,10.90
2010,06,02,05,06,15.00
2010,06,02,05,07,15.50
2010,06,02,05,08,12.20
2010,06,02,05,09,8.70
2010,06,02,05,10,8.00
2010,06,02,05,11,12.40
2010,06,02,05,12,11.60
2010,06,02,05,13,7.90
2010,06,02,05,14,10.60
2010,06,02,05,15,10.80
2010,06,02,05,16,8.60
2010,06,02,05,17,13.40
2010,06,02,05,18,11.90
2010,06,02,05,19,6.90
2010,06,02,05,20,14.80
2010,06,02,05,21,12.00
2010,06,02,05,22,12.50
2010,06,02,05,23,9.10
2010,06,02,05,24,6.20
2010,06,02,05,25,8.90
2010,06,02,05,26,16.10
2010,06,02,05,27,17.00
2010,06,02,05,28,10.00
2010,06,02,05,29,13.00
2010,06,02,05,30,15.80
2010,06,02,05,31,13.30
2010,06,02,05,32,10.30
2010,06,02,05,33,14.40
2010,06,02,05,34,15.50
2010,06,02,05,35,12.30
2010,06,02,05,36,14.50
2010,06,02,05,37,12.80
2010,06,02,05,38,9.90
2010,06,02,05,39,12.80
2010,06,02,05,40,12.80
2010,06,02,05,41,17.00
2010,06,02,05,42,17.60
2010,06,02,05,43,12.20
2010,06,02,05,44,15.60
2010,06,02,05,45,11.50
2010,06,02,05,46,14.70
2010,06,02,05,47,17.10
2010,06,02,05,48,13.00
2010,06,02,05,49,13.10
2010,06,02,05,50,10.60
2010,06,02,05,51,10.40
2010,06,02,05,52,12.10
2010,06,02,05,53,14.10
2010,06,02,05,54,15.30
2010,06,02,05,55,19.30
2010,06,02,05,56,15.70
2010,06,02,05,57,14.30
2010,06,02,05,58,21.00
2010,06,02,05,59,16.60
2010,06,02,06,00,14.80
2010,06,02,06,01,13.40
2010,06,02,06,02,13.00
2010,06,02,06,03,15.10
2010,06,02,06,04,11.30
2010,06,02,06,05,10.80
2010,06,02,06,06,14.70
2010,06,02,06,07,12.10
2010,06,02,06,08,9.00
2010,06,02,06,09,10.50
2010,06,02,06,10,10.50
2010,06,02,06,11,18.00
2010,06,02,06,12,13.90
2010,06,02,06,13,11.50
2010,06,02,06,14,13.10
2010,06,02,06,15,8.90
2010,06,02,06,16,10.30
2010,06,02,06,17,13.10
2010,06,02,06,18,12.10
2010,06,02,06,19,17.00
2010,06,02,06,20,10.90
2010,06,02,06,21,13.90
2010,06,02,06,22,11.90
2010,06,02,06,23,13.50
2010,06,02,06,24,12.50
2010,06,02,06,25,18.00
2010,06,02,06,26,16.20
2010,06,02,06,27,10.70
2010,06,02,06,28,12.40
2010,06,02,06,29,16.50
2010,06,02,06,30,13.80
2010,06,02,06,31,11.10
2010,06,02,06,32,16.40
2010,06,02,06,33,15.80
2010,06,02,06,34,12.50
2010,06,02,06,35,13.60
2010,06,02,06,36,14.60
2010,06,02,06,37,11.90
2010,06,02,06,38,14.50
2010,06,02,06,39,13.60
2010,06,02,06,40,14.10
2010,06,02,06,41,16.90
2010,06,02,06,42,11.70
2010,06,02,06,43,11.10
2010,06,02,06,44,12.50
2010,06,02,06,45,13.70
2010,06,02,06,46,6.70
2010,06,02,06,47,11.10
2010,06,02,06,48,13.70
2010,06,02,06,49,17.50
2010,06,02,06,50,11.90
2010,06,02,06,51,10.90
2010,06,02,06,52,15.10
2010,06,02,06,53,8.90
2010,06,02,06,54,9.20
2010,06,02,06,55,15.10
2010,06,02,06,56,8.50
2010,06,02,06,57,13.10
2010,06,02,06,58,14.20
2010,06,02,06,59,11.10
2010,06,02,07,00,12.50
2010,06,02,07,01,11.70
2010,06,02,07,02,8.70
2010,06,02,07,03,8.50
2010,06,02,07,04,7.00
2010,06,02,07,05,11.90
2010,06,02,07,06,5.90
2010,06,02,07,07,5.90
2010,06,02,07,08,7.10
2010,06,02,07,09,5.60
2010,06,02,07,10,12.10
2010,06,02,07,11,9.50
2010,06,02,07,12,8.10
2010,06,02,07,13,5.60
2010,06,02,07,14,6.30
2010,06,02,07,15,11.50
2010,06,02,07,16,10.10
2010,06,02,07,17,9.70
2010,06,02,07,18,3.90
2010,06,02,07,19,7.20
2010,06,02,07,20,4.40
2010,06,02,07,21,7.30
2010,06,02,07,22,3.30
2010,06,02,07,23,4.30
2010,06,02,07,24,9.40
2010,06,02,07,25,7.30
2010,06,02,07,26,3.80
2010,06,02,07,27,0.80
2010,06,02,07,28,3.60
2010,06,02,07,29,3.60
2010,06,02,07,30,4.70
2010,06,02,07,31,4.70
2010,06,02,07,32,4.50
2010,06,02,07,33,4.40
2010,06,02,07,34,3.10
2010,06,02,07,35,7.50
2010,06,02,07,36,5.70
2010,06,02,07,37,6.30
2010,06,02,07,38,1.90
2010,06,02,07,39,3.10
2010,06,02,07,40,4.60
2010,06,02,07,41,11.30
2010,06,02,07,42,8.60
2010,06,02,07,43,7.60
2010,06,02,07,44,8.70
2010,06,02,07,45,12.90
2010,06,02,07,46,11.20
2010,06,02,07,47,16.70
2010,06,02,07,48,15.00
2010,06,02,07,49,11.00
2010,06,02,07,50,12.50
2010,06,02,07,51,11.50
2010,06,02,07,52,16.90
2010,06,02,07,53,12.10
2010,06,02,07,54,17.00
2010,06,02,07,55,10.10
2010,06,02,07,56,8.70
2010,06,02,07,57,15.10
2010,06,02,07,58,7.10
2010,06,02,07,59,11.80
2010,06,02,08,00,13.50
2010,06,02,08,01,10.30
2010,06,02,08,02,6.90
2010,06,02,08,03,14.80
2010,06,02,08,04,15.30
2010,06,02,08,05,17.10
2010,06,02,08,06,16.80
2010,06,02,08,07,19.20
2010,06,02,08,08,12.60
2010,06,02,08,09,11.50
2010,06,02,08,10,9.00
2010,06,02,08,11,15.40
2010,06,02,08,12,7.00
2010,06,02,08,13,15.10
2010,06,02,08,14,11.30
2010,06,02,08,15,10.90
2010,06,02,08,16,11.90
2010,06,02,08,17,10.20
2010,06,02,08,18,11.20
2010,06,02,08,19,6.30
2010,06,02,08,20,9.50
2010,06,02,08,21,7.00
2010,06,02,08,22,7.40
2010,06,02,08,23,11.40
2010,06,02,08,24,11.70
2010,06,02,08,25,8.20
2010,06,02,08,26,11.90
2010,06,02,08,27,8.40
2010,06,02,08,28,9.80
2010,06,02,08,29,9.00
2010,06,02,08,30,12.10
2010,06,02,08,31,8.80
2010,06,02,08,32,10.50
2010,06,02,08,33,10.80
2010,06,02,08,34,12.80
2010,06,02,08,35,13.80
2010,06,02,08,36,8.70
2010,06,02,08,37,8.50
2010,06,02,08,38,8.40
2010,06,02,08,39,8.60
2010,06,02,08,40,5.80
2010,06,02,08,41,8.00
2010,06,02,08,42,7.60
2010,06,02,08,43,4.10
2010,06,02,08,44,0.80
2010,06,02,08,45,0.90
2010,06,02,08,46,3.10
2010,06,02,08,47,1.90
2010,06,02,08,48,0.00
2010,06,02,08,49,1.00
2010,06,02,08,50,3.60
2010,06,02,08,51,2.70
2010,06,02,08,52,7.00
2010,06,02,08,53,13.00
2010,06,02,08,54,8.10
2010,06,02,08,55,3.90
2010,06,02,08,56,7.10
2010,06,02,08,57,7.90
2010,06,02,08,58,7.10
2010,06,02,08,59,5.80
2010,06,02,09,00,8.90
2010,06,02,09,01,5.50
2010,06,02,09,02,9.70
2010,06,02,09,03,10.10
2010,06,02,09,04,8.30
2010,06,02,09,05,8.60
2010,06,02,09,06,3.60
2010,06,02,09,07,2.80
2010,06,02,09,08,3.70
2010,06,02,09,09,4.90
2010,06,02,09,10,5.90
2010,06,02,09,11,2.00
2010,06,02,09,12,8.00
2010,06,02,09,13,7.60
2010,06,02,09,14,3.90
2010,06,02,09,15,6.40
2010,06,02,09,16,6.60
2010,06,02,09,17,2.10
2010,06,02,09,18,4.80
2010,06,02,09,19,5.50
2010,06,02,09,20,3.40
2010,06,02,09,21,4.30
2010,06,02,09,22,4.50
2010,06,02,09,23,5.90
2010,06,02,09,24,6.00
2010,06,02,09,25,9.50
2010,06,02,09,26,8.60
2010,06,02,09,27,8.90
2010,06,02,09,28,5.20
2010,06,02,09,29,4.60
2010,06,02,09,30,8.30
2010,06,02,09,31,6.60
2010,06,02,09,32,8.40
2010,06,02,09,33,8.90
2010,06,02,09,34,8.30
2010,06,02,09,35,11.60
2010,06,02,09,36,9.70
2010,06,02,09,37,6.90
2010,06,02,09,38,2.80
2010,06,02,09,39,5.60
2010,06,02,09,40,4.70
2010,06,02,09,41,6.70
2010,06,02,09,42,6.90
2010,06,02,09,43,6.20
2010,06,02,09,44,8.90
2010,06,02,09,45,10.50
2010,06,02,09,46,8.30
2010,06,02,09,47,8.90
2010,06,02,09,48,7.10
2010,06,02,09,49,5.20
2010,06,02,09,50,7.70
2010,06,02,09,51,4.80
2010,06,02,09,52,2.10
2010,06,02,09,53,7.20
2010,06,02,09,54,7.70
2010,06,02,09,55,6.90
2010,06,02,09,56,7.00
2010,06,02,09,57,5.10
2010,06,02,09,58,3.60
2010,06,02,09,59,3.60
2010,06,02,10,00,4.40
2010,06,02,10,01,1.40
2010,06,02,10,02,5.10
2010,06,02,10,03,5.30
2010,06,02,10,04,4.90
2010,06,02,10,05,5.80
2010,06,02,10,06,5.80
2010,06,02,10,07,7.90
2010,06,02,10,08,9.10
2010,06,02,10,09,5.10
2010,06,02,10,10,2.20
2010,06,02,10,11,4.30
2010,06,02,10,12,6.10
2010,06,02,10,13,6.00
2010,06,02,10,14,6.60
2010,06,02,10,15,5.20
2010,06,02,10,16,6.10
2010,06,02,10,17,6.00
2010,06,02,10,18,5.80
2010,06,02,10,19,0.30
2010,06,02,10,20,3.10
2010,06,02,10,21,5.40
2010,06,02,10,22,3.90
2010,06,02,10,23,5.30
2010,06,02,10,24,4.70
2010,06,02,10,25,6.10
2010,06,02,10,26,4.90
2010,06,02,10,27,3.10
2010,06,02,10,28,3.00
2010,06,02,10,29,0.00
2010,06,02,10,30,3.50
2010,06,02,10,31,2.80
2010,06,02,10,32,0.20
2010,06,02,10,33,3.00
2010,06,02,10,34,3.10
2010,06,02,10,35,0.80
2010,06,02,10,36,1.00
2010,06,02,10,37,2.00
2010,06,02,10,38,2.40
2010,06,02,10,39,1.00
2010,06,02,10,40,1.30
2010,06,02,10,41,0.70
2010,06,02,10,42,0.00
2010,06,02,10,43,0.00
2010,06,02,10,44,1.20
2010,06,02,10,45,2.10
2010,06,02,10,46,0.80
2010,06,02,10,47,1.20
2010,06,02,10,48,0.60
2010,06,02,10,49,0.70
2010,06,02,10,50,0.00
2010,06,02,10,51,0.00
2010,06,02,10,52,0.00
2010,06,02,10,53,0.00
2010,06,02,10,54,0.30
2010,06,02,10,55,0.20
2010,06,02,10,56,0.20
2010,06,02,10,57,0.10
2010,06,02,10,58,2.40
2010,06,02,10,59,1.30
2010,06,02,11,00,0.10
2010,06,02,11,01,0.60
2010,06,02,11,02,0.10
2010,06,02,11,03,0.70
2010,06,02,11,04,3.80
2010,06,02,11,05,3.40
2010,06,02,11,06,1.80
2010,06,02,11,07,0.40
2010,06,02,11,08,0.00
2010,06,02,11,09,1.40
2010,06,02,11,10,1.70
2010,06,02,11,11,0.90
2010,06,02,11,12,0.90
2010,06,02,11,13,0.10
2010,06,02,11,14,0.30
2010,06,02,11,15,1.90
2010,06,02,11,16,1.60
2010,06,02,11,17,0.20
2010,06,02,11,18,2.00
2010,06,02,11,19,1.90
2010,06,02,11,20,0.30
2010,06,02,11,21,0.50
2010,06,02,11,22,3.90
2010,06,02,11,23,3.70
2010,06,02,11,24,3.30
2010,06,02,11,25,2.70
2010,06,02,11,26,1.90
2010,06,02,11,27,2.30
2010,06,02,11,28,0.70
2010,06,02,11,29,0.00
2010,06,02,11,30,0.00
2010,06,02,11,31,0.00
2010,06,02,11,32,0.30
2010,06,02,11,33,0.00
2010,06,02,11,34,0.80
2010,06,02,11,35,1.50
2010,06,02,11,36,1.90
2010,06,02,11,37,0.30
2010,06,02,11,38,1.40
2010,06,02,11,39,0.80
2010,06,02,11,40,0.40
2010,06,02,11,41,0.90
2010,06,02,11,42,0.60
2010,06,02,11,43,3.10
2010,06,02,11,44,1.50
2010,06,02,11,45,0.70
2010,06,02,11,46,0.00
2010,06,02,11,47,0.00
2010,06,02,11,48,0.00
2010,06,02,11,49,0.30
2010,06,02,11,50,1.40
2010,06,02,11,51,0.20
2010,06,02,11,52,1.00
2010,06,02,11,53,0.60
2010,06,02,11,54,1.20
2010,06,02,11,55,0.00
2010,06,02,11,56,0.60
2010,06,02,11,57,2.50
2010,06,02,11,58,3.50
2010,06,02,11,59,1.90
2010,06,02,12,00,0.70
2010,06,02,12,01,0.50
2010,06,02,12,02,2.10
2010,06,02,12,03,2.30
2010,06,02,12,04,1.50
2010,06,02,12,05,0.40
2010,06,02,12,06,0.00
2010,06,02,12,07,0.00
2010,06,02,12,08,0.00
2010,06,02,12,09,0.00
2010,06,02,12,10,0.00
2010,06,02,12,11,0.00
2010,06,02,12,12,0.00
2010,06,02,12,13,0.00
2010,06,02,12,14,0.00
2010,06,02,12,15,0.00
2010,06,02,12,16,0.00
2010,06,02,12,17,0.00
2010,06,02,12,18,0.00
2010,06,02,12,19,0.00
2010,06,02,12,20,0.00
2010,06,02,12,21,0.00
2010,06,02,12,22,0.00
2010,06,02,12,23,0.00
2010,06,02,12,24,0.00
2010,06,02,12,25,0.00
2010,06,02,12,26,0.50
2010,06,02,12,27,0.00
2010,06,02,12,28,0.00
2010,06,02,12,29,0.00
2010,06,02,12,30,0.50
2010,06,02,12,31,0.30
2010,06,02,12,32,1.10
2010,06,02,12,33,2.40
2010,06,02,12,34,1.00
2010,06,02,12,35,2.90
2010,06,02,12,36,4.30
2010,06,02,12,37,3.60
2010,06,02,12,38,5.90
2010,06,02,12,39,7.70
2010,06,02,12,40,7.00
2010,06,02,12,41,9.80
2010,06,02,12,42,8.60
2010,06,02,12,43,6.70
2010,06,02,12,44,6.80
2010,06,02,12,45,10.20
2010,06,02,12,46,5.60
2010,06,02,12,47,5.30
2010,06,02,12,48,11.10
2010,06,02,12,49,9.50
2010,06,02,12,50,10.20
2010,06,02,12,51,8.60
2010,06,02,12,52,10.50
2010,06,02,12,53,4.90
2010,06,02,12,54,8.00
2010,06,02,12,55,8.20
2010,06,02,12,56,6.00
2010,06,02,12,57,6.10
2010,06,02,12,58,8.00
2010,06,02,12,59,4.90
2010,06,02,13,00,9.70
2010,06,02,13,01,8.90
2010,06,02,13,02,6.90
2010,06,02,13,03,7.10
2010,06,02,13,04,8.30
2010,06,02,13,05,7.00
2010,06,02,13,06,6.00
2010,06,02,13,07,8.10
2010,06,02,13,08,11.50
2010,06,02,13,09,8.40
2010,06,02,13,10,9.40
2010,06,02,13,11,11.30
2010,06,02,13,12,10.00
2010,06,02,13,13,9.50
2010,06,02,13,14,9.90
2010,06,02,13,15,12.60
2010,06,02,13,16,15.50
2010,06,02,13,17,8.40
2010,06,02,13,18,14.00
2010,06,02,13,19,10.10
2010,06,02,13,20,5.40
2010,06,02,13,21,18.50
2010,06,02,13,22,13.00
2010,06,02,13,23,8.60
2010,06,02,13,24,9.20
2010,06,02,13,25,6.40
2010,06,02,13,26,4.70
2010,06,02,13,27,7.10
2010,06,02,13,28,9.90
2010,06,02,13,29,12.00
2010,06,02,13,30,9.10
2010,06,02,13,31,7.80
2010,06,02,13,32,7.40
2010,06,02,13,33,10.60
2010,06,02,13,34,10.00
2010,06,02,13,35,9.10
2010,06,02,13,36,8.20
2010,06,02,13,37,10.50
2010,06,02,13,38,11.20
2010,06,02,13,39,9.40
2010,06,02,13,40,2.40
2010,06,02,13,41,2.70
2010,06,02,13,42,3.00
2010,06,02,13,43,8.30
2010,06,02,13,44,7.00
2010,06,02,13,45,9.40
2010,06,02,13,46,8.50
2010,06,02,13,47,10.50
2010,06,02,13,48,8.40
2010,06,02,13,49,10.10
2010,06,02,13,50,10.60
2010,06,02,13,51,11.50
2010,06,02,13,52,8.20
2010,06,02,13,53,14.70
2010,06,02,13,54,10.30
2010,06,02,13,55,10.60
2010,06,02,13,56,10.10
2010,06,02,13,57,14.60
2010,06,02,13,58,13.00
2010,06,02,13,59,9.00
2010,06,02,14,00,9.50
2010,06,02,14,01,7.10
2010,06,02,14,02,14.10
2010,06,02,14,03,8.80
2010,06,02,14,04,11.40
2010,06,02,14,05,10.20
2010,06,02,14,06,3.70
2010,06,02,14,07,9.20
2010,06,02,14,08,4.50
2010,06,02,14,09,13.20
2010,06,02,14,10,7.80
2010,06,02,14,11,10.80
2010,06,02,14,12,8.30
2010,06,02,14,13,16.10
2010,06,02,14,14,12.90
2010,06,02,14,15,8.90
2010,06,02,14,16,8.10
2010,06,02,14,17,8.00
2010,06,02,14,18,8.50
2010,06,02,14,19,7.90
2010,06,02,14,20,10.70
2010,06,02,14,21,13.90
2010,06,02,14,22,7.90
2010,06,02,14,23,11.90
2010,06,02,14,24,14.10
2010,06,02,14,25,8.30
2010,06,02,14,26,13.10
2010,06,02,14,27,14.10
2010,06,02,14,28,18.00
2010,06,02,14,29,18.30
2010,06,02,14,30,13.50
2010,06,02,14,31,15.80
2010,06,02,14,32,20.00
2010,06,02,14,33,15.00
2010,06,02,14,34,21.70
2010,06,02,14,35,10.90
2010,06,02,14,36,17.40
2010,06,02,14,37,14.90
2010,06,02,14,38,14.90
2010,06,02,14,39,16.90
2010,06,02,14,40,18.90
2010,06,02,14,41,17.60
2010,06,02,14,42,19.10
2010,06,02,14,43,15.80
2010,06,02,14,44,12.70
2010,06,02,14,45,15.50
2010,06,02,14,46,15.30
2010,06,02,14,47,18.80
2010,06,02,14,48,23.00
2010,06,02,14,49,24.40
2010,06,02,14,50,20.20
2010,06,02,14,51,21.10
2010,06,02,14,52,22.70
2010,06,02,14,53,15.10
2010,06,02,14,54,13.50
2010,06,02,14,55,22.10
2010,06,02,14,56,13.50
2010,06,02,14,57,17.90
2010,06,02,14,58,17.20
2010,06,02,14,59,20.30
2010,06,02,15,00,18.70
2010,06,02,15,01,21.80
2010,06,02,15,02,16.90
2010,06,02,15,03,21.60
2010,06,02,15,04,22.10
2010,06,02,15,05,27.40
2010,06,02,15,06,22.90
2010,06,02,15,07,17.40
2010,06,02,15,08,24.40
2010,06,02,15,09,14.60
2010,06,02,15,10,22.40
2010,06,02,15,11,29.70
2010,06,02,15,12,22.10
2010,06,02,15,13,27.90
2010,06,02,15,14,24.50
2010,06,02,15,15,22.00
2010,06,02,15,16,18.30
2010,06,02,15,17,15.00
2010,06,02,15,18,24.20
2010,06,02,15,19,27.70
2010,06,02,15,20,24.20
2010,06,02,15,21,24.60
2010,06,02,15,22,23.30
2010,06,02,15,23,20.80
2010,06,02,15,24,11.30
2010,06,02,15,25,17.90
2010,06,02,15,26,22.00
2010,06,02,15,27,22.40
2010,06,02,15,28,27.10
2010,06,02,15,29,27.80
2010,06,02,15,30,19.90
2010,06,02,15,31,15.20
2010,06,02,15,32,23.90
2010,06,02,15,33,15.90
2010,06,02,15,34,25.70
2010,06,02,15,35,20.70
2010,06,02,15,36,24.80
2010,06,02,15,37,28.60
2010,06,02,15,38,23.70
2010,06,02,15,39,20.20
2010,06,02,15,40,19.30
2010,06,02,15,41,14.20
2010,06,02,15,42,15.70
2010,06,02,15,43,12.50
2010,06,02,15,44,22.10
2010,06,02,15,45,20.40
2010,06,02,15,46,17.40
2010,06,02,15,47,26.90
2010,06,02,15,48,29.40
2010,06,02,15,49,29.70
2010,06,02,15,50,18.80
2010,06,02,15,51,21.30
2010,06,02,15,52,17.40
2010,06,02,15,53,17.40
2010,06,02,15,54,12.80
2010,06,02,15,55,20.90
2010,06,02,15,56,21.20
2010,06,02,15,57,21.20
2010,06,02,15,58,29.20
2010,06,02,15,59,21.90
2010,06,02,16,00,23.80
2010,06,02,16,01,26.50
2010,06,02,16,02,22.20
2010,06,02,16,03,21.60
2010,06,02,16,04,13.40
2010,06,02,16,05,16.70
2010,06,02,16,06,13.60
2010,06,02,16,07,15.70
2010,06,02,16,08,17.60
2010,06,02,16,09,18.00
2010,06,02,16,10,17.10
2010,06,02,16,11,19.00
2010,06,02,16,12,26.60
2010,06,02,16,13,21.30
2010,06,02,16,14,30.00
2010,06,02,16,15,17.90
2010,06,02,16,16,26.80
2010,06,02,16,17,20.20
2010,06,02,16,18,20.20
2010,06,02,16,19,20.40
2010,06,02,16,20,20.10
2010,06,02,16,21,18.30
2010,06,02,16,22,23.90
2010,06,02,16,23,23.90
2010,06,02,16,24,21.40
2010,06,02,16,25,23.60
2010,06,02,16,26,12.90
2010,06,02,16,27,18.30
2010,06,02,16,28,19.10
2010,06,02,16,29,12.50
2010,06,02,16,30,26.00
2010,06,02,16,31,19.00
2010,06,02,16,32,23.80
2010,06,02,16,33,16.80
2010,06,02,16,34,16.70
2010,06,02,16,35,11.10
2010,06,02,16,36,16.30
2010,06,02,16,37,18.90
2010,06,02,16,38,21.80
2010,06,02,16,39,21.40
2010,06,02,16,40,15.10
2010,06,02,16,41,17.50
2010,06,02,16,42,22.00
2010,06,02,16,43,17.50
2010,06,02,16,44,13.80
2010,06,02,16,45,16.60
2010,06,02,16,46,14.60
2010,06,02,16,47,21.80
2010,06,02,16,48,17.50
2010,06,02,16,49,20.40
2010,06,02,16,50,18.00
2010,06,02,16,51,18.50
2010,06,02,16,52,21.80
2010,06,02,16,53,28.90
2010,06,02,16,54,29.70
2010,06,02,16,55,29.80
2010,06,02,16,56,33.90
2010,06,02,16,57,35.70
2010,06,02,16,58,33.90
2010,06,02,16,59,33.20
2010,06,02,17,00,29.90
2010,06,02,17,01,33.20
2010,06,02,17,02,28.70
2010,06,02,17,03,18.40
2010,06,02,17,04,29.10
2010,06,02,17,05,36.30
2010,06,02,17,06,31.60
2010,06,02,17,07,33.90
2010,06,02,17,08,28.20
2010,06,02,17,09,29.90
2010,06,02,17,10,35.00
2010,06,02,17,11,30.30
2010,06,02,17,12,29.70
2010,06,02,17,13,28.40
2010,06,02,17,14,24.90
2010,06,02,17,15,22.50
2010,06,02,17,16,22.70
2010,06,02,17,17,26.20
2010,06,02,17,18,24.30
2010,06,02,17,19,27.60
2010,06,02,17,20,20.40
2010,06,02,17,21,22.50
2010,06,02,17,22,22.70
2010,06,02,17,23,21.40
2010,06,02,17,24,18.50
2010,06,02,17,25,17.50
2010,06,02,17,26,22.10
2010,06,02,17,27,16.40
2010,06,02,17,28,26.60
2010,06,02,17,29,30.20
2010,06,02,17,30,19.20
2010,06,02,17,31,20.70
2010,06,02,17,32,25.30
2010,06,02,17,33,16.10
2010,06,02,17,34,16.20
2010,06,02,17,35,14.60
2010,06,02,17,36,20.90
2010,06,02,17,37,22.20
2010,06,02,17,38,34.70
2010,06,02,17,39,38.50